Regional Weather Roundup
Issued by NWS Sioux Falls, SD

Home | Current Version | Previous Version | Graphics & Text | Print | Product List | Glossary On
Versions: 1 2 3 4 5 6 7 8 9 10 11 12 13 14 15 16 17 18 19 20 21 22 23 24 25 26 27 28 29 30 31 32 33 34 35 36 37 38 39 40 41 42 43 44 45 46 47 48 49 50
000
ASUS43 KFSD 301010
RWRFSD

WEATHER ROUNDUP FOR SE SOUTH DAKOTA/SW MINNESOTA/NW IOWA
NATIONAL WEATHER SERVICE SIOUX FALLS SD
500 AM CDT SAT MAY 30 2015

NOTE: "FAIR" INDICATES FEW OR NO CLOUDS BELOW 12,000 FEET WITH NO
SIGNIFICANT WEATHER AND OR OBSTRUCTIONS TO VISIBILITY.


SDZ038>040-050-052>070-301100-
SOUTHEAST SOUTH DAKOTA

CITY           SKY/WX    TMP DP  RH WIND       PRES   REMARKS
BROOKINGS      PTCLDY    41  34  75 N12       30.24R
CHAMBERLAIN    CLEAR     41  37  84 N7        30.29S
HURON          PTCLDY    39  36  89 N7        30.28R
MADISON        FAIR      39  39 100 N16       30.22R
MITCHELL       CLEAR     41  38  89 NW10      30.27R
SIOUX FALLS    MOCLDY    45  39  79 N10       30.20R
WINNER         FAIR      39  35  86 CALM      30.29R
YANKTON        MOCLDY    46  39  76 NW15      30.21R
$$

MNZ071-072-080-081-089-090-097-098-301100-
SOUTHWEST MINNESOTA

CITY           SKY/WX    TMP DP  RH WIND       PRES   REMARKS
FAIRMONT       CLOUDY    48  43  81 N20       30.11R
JACKSON        MOCLDY    46  43  87 N13G20    30.14R
LUVERNE        CLOUDY    46  41  81 N10G16    30.19R
MARSHALL       CLEAR     43  36  75 N13       30.21R
MONTEVIDEO     CLEAR     43  39  87 N10       30.23R
PIPESTONE      MOCLDY    43  37  81 N10G16    30.19R
REDWOOD FALLS  FAIR      46  42  86 N8        30.18R
TRACY          CLEAR     43  41  93 N12G17    30.20R
WINDOM         PTCLDY    46  43  87 N17       30.15R
WORTHINGTON    PTCLDY    46  39  76 N16G22    30.16R
$$

IAZ001>003-012>014-020>022-031-032-NEZ013-014-SDZ071-301100-
NORTHWEST IOWA

CITY           SKY/WX    TMP DP  RH WIND       PRES   REMARKS
CHEROKEE       CLOUDY    50  46  83 N17       30.12R
DENISON        CLOUDY    52  52 100 N12       30.08R
ESTHERVILLE    MOCLDY    47  44  90 N20G28    30.11R
LE MARS        CLOUDY    50  45  81 N13       30.17R
ORANGE CITY    CLOUDY    46  43  87 N12G18    30.14S
SHELDON        MOCLDY    48  45  87 N16G23    30.14R
SIOUX CITY     CLOUDY    52  43  71 N18       30.15R
SPENCER        MOCLDY    50  44  80 N18G24    30.12R
STORM LAKE     CLOUDY    52  46  82 N22       30.11R
$$

ABBREVIATIONS USED IN REMARKS
   TC - TEMPERATURE IN CELSIUS
  WCI - WIND CHILL INDEX
   HX - HEAT INDEX
  VSB - VISIBILITY




USA.gov is the U.S. government's official web portal to all federal, state and local government web resources and services.